When you browse on this site, cookies collect data to enhance your experience and personalize the content and advertising you see.
Visit our Privacy Policy to learn more. By continuing to use the site, you agree to this use of cookies and data.
  • In Romania
  • List of Countries
  • For 7 days
  • Water Temperature
  • Satellite Maps
  • Weather Map
  • Weather Widgets
  • user-avatar
    Login

    Hourly Weather Novoselok

    Today, 14 December, Friday

    Time Temperature Precipitation Wind Pressure Humidity
    00:00 -3°C° 0 mm 2 mps 751 mmHg 96%
    01:00 -3°C° 0.1 mm 2 mps 751 mmHg 96%
    02:00 -4°C° 0.1 mm 3 mps 751 mmHg 96%
    03:00 -4°C° 0.1 mm 3 mps 751 mmHg 96%
    04:00 -4°C° 0.3 mm 3 mps 751 mmHg 96%
    05:00 -5°C° 0.3 mm 3 mps 751 mmHg 96%
    06:00 -5°C° 0.3 mm 4 mps 751 mmHg 96%
    07:00 -5°C° 0.5 mm 4 mps 751 mmHg 96%
    08:00 -5°C° 0.5 mm 4 mps 751 mmHg 95%
    09:00 -5°C° 0.5 mm 4 mps 751 mmHg 95%
    10:00 -5°C° 0.4 mm 4 mps 751 mmHg 95%
    11:00 -5°C° 0.4 mm 4 mps 751 mmHg 94%
    12:00 -6°C° 0.4 mm 5 mps 751 mmHg 94%
    13:00 -5°C° 0.4 mm 4 mps 751 mmHg 94%
    14:00 -5°C° 0.4 mm 4 mps 751 mmHg 93%
    15:00 -7°C° 0.4 mm 4 mps 751 mmHg 93%
    16:00 -7°C° 0.3 mm 4 mps 751 mmHg 93%
    17:00 -7°C° 0.3 mm 4 mps 751 mmHg 93%
    18:00 -7°C° 0.3 mm 4 mps 751 mmHg 93%
    19:00 -7°C° 0.2 mm 4 mps 751 mmHg 93%
    20:00 -7°C° 0.2 mm 4 mps 752 mmHg 93%
    21:00 -7°C° 0.2 mm 4 mps 752 mmHg 93%
    22:00 -7°C° 0.2 mm 4 mps 752 mmHg 93%
    23:00 -7°C° 0.2 mm 4 mps 752 mmHg 93%

    Tomorrow, 15 December, Saturday

    Time Temperature Precipitation Wind Pressure Humidity
    00:00 -8°C° 0.2 mm 4 mps 752 mmHg 93%
    01:00 -8°C° 0.1 mm 4 mps 752 mmHg 93%
    02:00 -8°C° 0.1 mm 4 mps 753 mmHg 93%
    03:00 -8°C° 0.1 mm 4 mps 753 mmHg 94%
    04:00 -8°C° 0.1 mm 4 mps 753 mmHg 94%
    05:00 -8°C° 0.1 mm 4 mps 753 mmHg 94%
    06:00 -8°C° 0.1 mm 4 mps 753 mmHg 94%
    07:00 -8°C° 0.1 mm 4 mps 754 mmHg 94%
    08:00 -8°C° 0.1 mm 4 mps 754 mmHg 93%
    09:00 -8°C° 0.1 mm 4 mps 755 mmHg 93%
    10:00 -7°C° 0 mm 4 mps 755 mmHg 92%
    11:00 -7°C° 0 mm 4 mps 755 mmHg 92%
    12:00 -7°C° 0 mm 5 mps 756 mmHg 91%
    13:00 -7°C° 0 mm 4 mps 756 mmHg 91%
    14:00 -7°C° 0 mm 4 mps 756 mmHg 91%
    15:00 -7°C° 0 mm 4 mps 757 mmHg 91%
    16:00 -8°C° 0 mm 4 mps 757 mmHg 91%
    17:00 -8°C° 0 mm 4 mps 758 mmHg 92%
    18:00 -8°C° 0 mm 4 mps 758 mmHg 92%
    19:00 -8°C° 0 mm 4 mps 758 mmHg 92%
    20:00 -9°C° 0 mm 4 mps 759 mmHg 92%
    21:00 -9°C° 0 mm 4 mps 759 mmHg 92%
    22:00 -9°C° 0 mm 4 mps 759 mmHg 93%
    23:00 -8°C° 0 mm 3 mps 760 mmHg 93%

    Day after tomorrow, 16 December, Sunday

    Time Temperature Precipitation Wind Pressure Humidity
    00:00 -8°C° 0 mm 3 mps 760 mmHg 94%
    01:00 -10°C° 0 mm 3 mps 760 mmHg 93%
    02:00 -13°C° 0 mm 3 mps 761 mmHg 93%
    03:00 -14°C° 0 mm 3 mps 761 mmHg 93%
    04:00 -15°C° 0 mm 3 mps 761 mmHg 91%
    05:00 -16°C° 0 mm 3 mps 761 mmHg 90%
    06:00 -17°C° 0 mm 3 mps 761 mmHg 88%
    07:00 -17°C° 0 mm 3 mps 762 mmHg 88%
    08:00 -17°C° 0 mm 3 mps 762 mmHg 88%
    09:00 -16°C° 0 mm 2 mps 762 mmHg 88%
    10:00 -15°C° 0 mm 2 mps 762 mmHg 88%
    11:00 -14°C° 0 mm 2 mps 763 mmHg 88%
    12:00 -13°C° 0 mm 2 mps 763 mmHg 88%
    13:00 -13°C° 0 mm 2 mps 763 mmHg 88%
    14:00 -14°C° 0 mm 2 mps 763 mmHg 89%
    15:00 -14°C° 0 mm 2 mps 763 mmHg 90%
    16:00 -14°C° 0 mm 2 mps 763 mmHg 91%
    17:00 -15°C° 0 mm 2 mps 763 mmHg 92%
    18:00 -15°C° 0 mm 2 mps 763 mmHg 93%
    19:00 -15°C° 0 mm 2 mps 763 mmHg 94%
    20:00 -15°C° 0 mm 2 mps 763 mmHg 94%
    21:00 -14°C° 0 mm 2 mps 763 mmHg 95%
    22:00 -14°C° 0 mm 2 mps 763 mmHg 95%
    23:00 -13°C° 0 mm 2 mps 763 mmHg 96%

    17 December, Monday

    Time Temperature Precipitation Wind Pressure Humidity
    00:00 -12°C° 0 mm 2 mps 763 mmHg 96%
    01:00 -12°C° 0 mm 2 mps 763 mmHg 96%
    02:00 -12°C° 0 mm 2 mps 763 mmHg 95%
    03:00 -12°C° 0 mm 2 mps 764 mmHg 95%
    04:00 -10°C° 0 mm 2 mps 763 mmHg 95%
    05:00 -10°C° 0 mm 2 mps 763 mmHg 95%
    06:00 -10°C° 0 mm 2 mps 763 mmHg 95%
    07:00 -10°C° 0 mm 2 mps 763 mmHg 95%
    08:00 -10°C° 0 mm 2 mps 763 mmHg 95%
    09:00 -10°C° 0 mm 2 mps 763 mmHg 96%
    10:00 -10°C° 0 mm 2 mps 763 mmHg 95%
    11:00 -9°C° 0 mm 2 mps 763 mmHg 95%
    12:00 -9°C° 0 mm 2 mps 763 mmHg 94%
    13:00 -8°C° 0 mm 2 mps 763 mmHg 95%
    14:00 -8°C° 0 mm 2 mps 763 mmHg 95%
    15:00 -8°C° 0 mm 2 mps 762 mmHg 95%
    16:00 -8°C° 0 mm 2 mps 762 mmHg 96%
    17:00 -9°C° 0 mm 2 mps 762 mmHg 96%
    18:00 -9°C° 0 mm 2 mps 762 mmHg 96%
    19:00 -9°C° 0 mm 2 mps 762 mmHg 96%
    20:00 -8°C° 0 mm 2 mps 762 mmHg 96%
    21:00 -8°C° 0 mm 2 mps 762 mmHg 96%
    22:00 -8°C° 0 mm 2 mps 762 mmHg 96%
    23:00 -8°C° 0 mm 2 mps 762 mmHg 96%

    18 December, Tuesday

    Time Temperature Precipitation Wind Pressure Humidity
    00:00 -8°C° 0 mm 2 mps 763 mmHg 96%
    01:00 -8°C° 0 mm 2 mps 762 mmHg 96%
    02:00 -8°C° 0 mm 2 mps 762 mmHg 96%
    03:00 -8°C° 0 mm 2 mps 762 mmHg 96%
    04:00 -8°C° 0 mm 2 mps 762 mmHg 96%
    05:00 -8°C° 0 mm 2 mps 762 mmHg 96%
    06:00 -8°C° 0 mm 2 mps 762 mmHg 96%
    07:00 -8°C° 0 mm 2 mps 762 mmHg 96%
    08:00 -8°C° 0 mm 2 mps 763 mmHg 96%
    09:00 -8°C° 0 mm 2 mps 763 mmHg 96%
    10:00 -8°C° 0 mm 2 mps 763 mmHg 95%
    11:00 -7°C° 0 mm 2 mps 763 mmHg 94%
    12:00 -7°C° 0 mm 2 mps 763 mmHg 93%
    13:00 -7°C° 0 mm 2 mps 762 mmHg 93%
    14:00 -7°C° 0 mm 2 mps 762 mmHg 93%
    15:00 -7°C° 0 mm 2 mps 762 mmHg 94%
    16:00 -8°C° 0 mm 2 mps 762 mmHg 94%
    17:00 -8°C° 0 mm 2 mps 762 mmHg 95%
    18:00 -9°C° 0 mm 2 mps 762 mmHg 95%
    19:00 -9°C° 0 mm 2 mps 762 mmHg 95%
    20:00 -9°C° 0 mm 2 mps 763 mmHg 95%
    21:00 -9°C° 0 mm 2 mps 763 mmHg 95%
    22:00 -9°C° 0 mm 2 mps 763 mmHg 95%
    23:00 -10°C° 0 mm 2 mps 763 mmHg 95%

    19 December, Wednesday

    Time Temperature Precipitation Wind Pressure Humidity
    00:00 -10°C° 0 mm 2 mps 763 mmHg 95%
    01:00 -10°C° 0 mm 2 mps 763 mmHg 96%
    02:00 -10°C° 0 mm 2 mps 763 mmHg 96%
    03:00 -10°C° 0 mm 2 mps 763 mmHg 96%
    04:00 -12°C° 0 mm 2 mps 763 mmHg 96%
    05:00 -12°C° 0 mm 2 mps 763 mmHg 96%
    06:00 -12°C° 0 mm 2 mps 763 mmHg 96%
    07:00 -13°C° 0 mm 2 mps 763 mmHg 96%
    08:00 -13°C° 0 mm 2 mps 763 mmHg 95%
    09:00 -13°C° 0 mm 2 mps 763 mmHg 95%
    10:00 -13°C° 0 mm 2 mps 763 mmHg 95%
    11:00 -12°C° 0 mm 2 mps 763 mmHg 94%
    12:00 -12°C° 0 mm 2 mps 763 mmHg 94%
    13:00 -12°C° 0 mm 2 mps 763 mmHg 94%
    14:00 -12°C° 0 mm 2 mps 763 mmHg 94%
    15:00 -12°C° 0 mm 2 mps 763 mmHg 95%
    16:00 -13°C° 0 mm 2 mps 763 mmHg 95%
    17:00 -13°C° 0 mm 2 mps 763 mmHg 95%
    18:00 -13°C° 0 mm 2 mps 763 mmHg 95%
    19:00 -13°C° 0 mm 2 mps 763 mmHg 95%
    20:00 -13°C° 0 mm 2 mps 763 mmHg 95%
    21:00 -13°C° 0 mm 2 mps 763 mmHg 95%
    22:00 -13°C° 0 mm 2 mps 763 mmHg 95%
    23:00 -13°C° 0 mm 2 mps 763 mmHg 95%
    Show more